Content
SEND FEEDBACK

Daily
Averages
Monthly
Summary
United Kingdom

HINDHEAD, ENGLAND


Home > Europe > United Kingdom > England
Elevation: 402 feet     Latitude: 51 14N     Longitude: 000 57W

WEATHER
 
SELECT A DAY
Number of Records: 58,562;   Date Range: 8/10/96 - 7/31/14
 
SHARE

PRINT THIS DATA

[ ← Previous Day ]
WEATHER ALMANAC - NOVEMBER 21, 2013
[ Next Day → ]
[ °C ]   °F
Weather ElementAverageHighLow
Temperature40.3 °F45 °F (3:00 pm)35.6 °F (10:50 pm)
Dewpoint35.3 °F39.2 °F (6:50 am)33 °F (3:00 pm)
Humidity81.4 %93 % (12:50 am)51 % (3:00 pm)
Barometer29.67 in29.92 in (10:50 pm)29.42 in (12:50 am)
Wind Speed14.6 mph21.9 mph (8:50 am)
Wind Gust29.9 mph (6:50 am)
Weather ElementAverage
Visibility8.9 mi
Wind DirectionSW (226.3 °)

Weather ElementTotal
Precipitation---
Heating Degree Days24.7 (Base 65)
Averaged from 32 records on November 21, 2013
WEATHER CONDITIONS BREAKOUT
WIND DIRECTION BREAKOUT
WEATHER BY HOUR - NOVEMBER 21, 2013
[ °C ]   °F
Local TimeTemperatureDewpointHumidityBarometerVisibilityWind DirectionWind SpeedGust SpeedPrecipitationEventsConditions
12:50 AM37.4 °F35.6 °F93 %29.42 in6.2 miNNW (330°)15.0 mphRainLight Rain Showers
1:50 AM37.4 °F35.6 °F93 %29.44 in6.2 miNW (320°)11.5 mphMostly Cloudy
2:50 AM37.4 °F33.8 °F87 %29.44 in6.2 miNNW (330°)15.0 mphMostly Cloudy
3:00 AM38.0 °F35.0 °F82 %29.48 in19.0 miNNW (330°)15.0 mphPartly Cloudy
3:50 AM37.4 °F35.6 °F93 %29.44 in6.2 miNW (320°)15.0 mphMostly Cloudy
4:50 AM39.2 °F37.4 °F93 %29.44 in6.2 miWNW (300°)15.0 mphMostly Cloudy
5:50 AM41.0 °F37.4 °F87 %29.47 in6.2 miNNW (330°)16.1 mphLight Drizzle
6:00 AM40.0 °F38.0 °F90 %29.49 in7.0 miNNW (330°)16.1 mphRainLight Drizzle
6:50 AM41.0 °F39.2 °F93 %29.50 in6.2 miNorth (350°)17.3 mph29.9 mphRainLight Rain Showers
7:39 AM41.0 °F37.4 °F87 %29.53 in6.2 miNorth (360°)19.6 mphMostly Cloudy
7:50 AM41.0 °F37.4 °F87 %29.53 in6.2 miNorth (360°)18.4 mphOvercast
8:50 AM41.0 °F35.6 °F81 %29.56 in6.2 miNorth (360°)21.9 mphOvercast
9:00 AM41.0 °F36.0 °F77 %29.58 in19.0 miNorth21.9 mphPartly Cloudy
9:50 AM41.0 °F35.6 °F81 %29.59 in6.2 miNorth (10°)20.7 mphScattered Clouds
10:50 AM42.8 °F35.6 °F76 %29.65 in6.2 miNNE (20°)18.4 mph29.9 mphMostly Cloudy
11:50 AM42.8 °F37.4 °F81 %29.68 in6.2 miNorth (10°)17.3 mphScattered Clouds
12:00 PM42.0 °F37.0 °F75 %29.69 in16.0 miNorth (10°)17.3 mphPartly Cloudy
12:50 PM42.8 °F35.6 °F76 %29.68 in6.2 miNNE (20°)18.4 mph29.9 mphScattered Clouds
1:50 PM44.6 °F33.8 °F66 %29.71 in6.2 miNorth (10°)19.6 mphScattered Clouds
2:50 PM44.6 °F33.8 °F66 %29.74 in6.2 miNNE (20°)16.1 mph27.6 mphScattered Clouds
3:00 PM45.0 °F33.0 °F51 %29.75 in19.0 miNNE (20°)16.1 mphPartly Cloudy
3:50 PM44.6 °F33.8 °F66 %29.77 in6.2 miNorth (10°)10.4 mphScattered Clouds
4:50 PM41.0 °F33.8 °F76 %29.80 in6.2 miNorth (360°)12.7 mphPartly Cloudy
5:50 PM41.0 °F33.8 °F76 %29.83 inNorth (360°)10.4 mphClear
6:00 PM41.0 °F34.0 °F68 %29.85 in19.0 miNorth10.4 mphScattered Clouds
6:50 PM39.2 °F33.8 °F81 %29.86 inNorth (350°)9.2 mphClear
7:50 PM39.2 °F33.8 °F81 %29.86 inNNW (340°)9.2 mphClear
8:50 PM37.4 °F33.8 °F87 %29.89 inNNW (340°)9.2 mphClear
9:00 PM38.0 °F34.0 °F81 %29.91 in16.0 miNNW (340°)9.2 mphScattered Clouds
9:50 PM37.4 °F33.8 °F87 %29.89 inNNW (340°)9.2 mphClear
10:50 PM35.6 °F33.8 °F93 %29.92 in6.2 miNNW (330°)8.1 mphPartly Cloudy
11:50 PM35.6 °F33.8 °F93 %29.92 in6.2 miNNW (330°)6.9 mphPartly Cloudy
Hourly data recorded from EGVO, located miles away from Hindhead, England







STORIES FROM OUR PARTNERS